Overview Statistics Trail Chart Weather Telemetry Raw packets
 

This is the latest recevied weather packets stored in our database for station/object WI0K. If no packets are shown the sender has not sent any weather packets the latest 10 day(s).

<< 107 108 109 110 111 112 113 >>
Time Temp. Humidity Pressure Rain* Wind** Luminosity Snow
1787856398 29.44° C 33% 835.5 hPa 0 mm - 950 W/m² -
1787856097 28.89° C 35% 1023.4 hPa 0 mm - 955 W/m² -
1787855797 28.89° C 36% 835.6 hPa 0 mm - 959 W/m² -
1787855496 28.89° C 36% 835.6 hPa 0 mm - 950 W/m² -
1787855195 28.89° C 36% 835.6 hPa 0 mm - 941 W/m² -
1787854894 28.89° C 34% 1023.5 hPa 0 mm - 797 W/m² -
1787854594 28.89° C 35% 835.7 hPa 0 mm - 692 W/m² -
1787854293 28.89° C 38% 835.8 hPa 0 mm - 844 W/m² -
1787853992 28.89° C 37% 835.9 hPa 0 mm - 902 W/m² -
1787853691 28.33° C 38% 836 hPa 0 mm - 993 W/m² -
1787853391 28.33° C 40% 836.1 hPa 0 mm - 942 W/m² -
1787853090 28.33° C 39% 836.1 hPa 0 mm - 928 W/m² -
1787852789 28.33° C 41% 836.2 hPa 0 mm - 871 W/m² -
1787852492 28.33° C 40% 836.3 hPa 0 mm - 904 W/m² -
1787852188 28.89° C 39% 1024.2 hPa 0 mm - 892 W/m² -
1787851887 28.33° C 42% 836.3 hPa 0 mm - 888 W/m² -
1787851586 27.78° C 41% 1024.3 hPa 0 mm - 873 W/m² -
1787851286 27.78° C 44% 836.4 hPa 0 mm - 864 W/m² -
1787850985 27.22° C 43% 836.4 hPa 0 mm - 856 W/m² -
1787850684 26.67° C 41% 836.5 hPa 0 mm - 848 W/m² -
1787850384 26.67° C 46% 836.6 hPa 0 mm - 837 W/m² -
1787850083 26.11° C 46% 836.5 hPa 0 mm - 827 W/m² -
1787849782 25.56° C 50% 836.6 hPa 0 mm - 817 W/m² -
1787849481 25.56° C 48% 836.5 hPa 0 mm - 807 W/m² -
1787849180 25.56° C 49% 1024.4 hPa 0 mm - 792 W/m² -

* Rain latest hour (hover to see other rain measurements)
** Current wind speed in m/s (hover to see current wind gust speed)